When you browse on this site, cookies collect data to enhance your experience and personalize the content and advertising you see.
Visit our Privacy Policy to learn more. By continuing to use the site, you agree to this use of cookies and data.
  • In Sweden
  • List of Countries
  • For 7 days
  • Water Temperature
  • Satellite Maps
  • Weather Map
  • Weather Widgets
  • user-avatar
    Login

    Hourly Weather Andiyur

    Today, 15 December, Saturday

    Time Temperature Precipitation Wind Pressure Humidity
    00:00 +25°C° 0 mm 1 mps 737 mmHg 70%
    01:00 +24°C° 0 mm 1 mps 736 mmHg 72%
    02:00 +24°C° 0 mm 1 mps 736 mmHg 75%
    03:00 +24°C° 0 mm 1 mps 736 mmHg 78%
    04:00 +23°C° 0 mm 1 mps 736 mmHg 80%
    05:00 +23°C° 0 mm 1 mps 736 mmHg 83%
    06:00 +24°C° 0 mm 2 mps 736 mmHg 78%
    07:00 +25°C° 0 mm 2 mps 736 mmHg 73%
    08:00 +26°C° 0 mm 2 mps 737 mmHg 68%
    09:00 +27°C° 0 mm 2 mps 737 mmHg 62%
    10:00 +29°C° 0 mm 3 mps 737 mmHg 55%
    11:00 +30°C° 0 mm 3 mps 736 mmHg 49%
    12:00 +30°C° 0 mm 3 mps 736 mmHg 49%
    13:00 +30°C° 0 mm 3 mps 735 mmHg 49%
    14:00 +30°C° 0 mm 3 mps 734 mmHg 49%
    15:00 +29°C° 0 mm 2 mps 735 mmHg 54%
    16:00 +28°C° 0 mm 2 mps 735 mmHg 60%
    17:00 +27°C° 0 mm 2 mps 735 mmHg 65%
    18:00 +26°C° 0 mm 2 mps 735 mmHg 68%
    19:00 +25°C° 0 mm 2 mps 735 mmHg 70%
    20:00 +25°C° 0 mm 2 mps 736 mmHg 73%
    21:00 +24°C° 0 mm 2 mps 736 mmHg 75%
    22:00 +24°C° 0 mm 2 mps 736 mmHg 77%
    23:00 +24°C° 0 mm 2 mps 736 mmHg 78%

    Tomorrow, 16 December, Sunday

    Time Temperature Precipitation Wind Pressure Humidity
    00:00 +23°C° 0 mm 2 mps 736 mmHg 79%
    01:00 +23°C° 0 mm 2 mps 736 mmHg 80%
    02:00 +21°C° 0 mm 2 mps 735 mmHg 81%
    03:00 +22°C° 0 mm 1 mps 735 mmHg 81%
    04:00 +22°C° 0 mm 1 mps 735 mmHg 80%
    05:00 +22°C° 0 mm 1 mps 735 mmHg 79%
    06:00 +23°C° 0 mm 1 mps 736 mmHg 77%
    07:00 +23°C° 0 mm 1 mps 736 mmHg 74%
    08:00 +24°C° 0 mm 1 mps 737 mmHg 71%
    09:00 +25°C° 0 mm 1 mps 737 mmHg 64%
    10:00 +27°C° 0 mm 2 mps 736 mmHg 58%
    11:00 +28°C° 0 mm 2 mps 736 mmHg 51%
    12:00 +29°C° 0 mm 2 mps 735 mmHg 47%
    13:00 +30°C° 0 mm 3 mps 734 mmHg 44%
    14:00 +31°C° 0 mm 3 mps 733 mmHg 41%
    15:00 +30°C° 0 mm 2 mps 733 mmHg 45%
    16:00 +29°C° 0 mm 1 mps 733 mmHg 48%
    17:00 +28°C° 0 mm 1 mps 734 mmHg 52%
    18:00 +27°C° 0 mm 1 mps 734 mmHg 54%
    19:00 +26°C° 0 mm 1 mps 735 mmHg 56%
    20:00 +25°C° 0 mm 1 mps 736 mmHg 58%
    21:00 +24°C° 0 mm 1 mps 736 mmHg 60%
    22:00 +24°C° 0 mm 1 mps 736 mmHg 62%
    23:00 +23°C° 0 mm 1 mps 736 mmHg 63%

    Day after tomorrow, 17 December, Monday

    Time Temperature Precipitation Wind Pressure Humidity
    00:00 +23°C° 0 mm 1 mps 736 mmHg 65%
    01:00 +22°C° 0 mm 1 mps 735 mmHg 66%
    02:00 +22°C° 0 mm 1 mps 735 mmHg 67%
    03:00 +21°C° 0 mm 1 mps 735 mmHg 68%
    04:00 +21°C° 0 mm 1 mps 735 mmHg 69%
    05:00 +21°C° 0 mm 1 mps 735 mmHg 70%
    06:00 +22°C° 0 mm 1 mps 736 mmHg 65%
    07:00 +23°C° 0 mm 1 mps 737 mmHg 61%
    08:00 +25°C° 0 mm 1 mps 737 mmHg 56%
    09:00 +27°C° 0 mm 1 mps 737 mmHg 50%
    10:00 +29°C° 0 mm 1 mps 737 mmHg 45%
    11:00 +31°C° 0 mm 1 mps 736 mmHg 39%
    12:00 +32°C° 0 mm 1 mps 736 mmHg 36%
    13:00 +33°C° 0 mm 1 mps 735 mmHg 34%
    14:00 +33°C° 0 mm 1 mps 734 mmHg 32%
    15:00 +32°C° 0 mm 1 mps 734 mmHg 36%
    16:00 +31°C° 0 mm 1 mps 734 mmHg 40%
    17:00 +30°C° 0 mm 1 mps 734 mmHg 44%
    18:00 +28°C° 0 mm 1 mps 735 mmHg 46%
    19:00 +27°C° 0 mm 1 mps 735 mmHg 49%
    20:00 +23°C° 0 mm 0 mps 736 mmHg 51%
    21:00 +25°C° 0 mm 1 mps 736 mmHg 53%
    22:00 +24°C° 0 mm 1 mps 736 mmHg 55%
    23:00 +24°C° 0 mm 1 mps 737 mmHg 57%

    18 December, Tuesday

    Time Temperature Precipitation Wind Pressure Humidity
    00:00 +23°C° 0 mm 1 mps 736 mmHg 61%
    01:00 +23°C° 0 mm 1 mps 736 mmHg 64%
    02:00 +22°C° 0 mm 1 mps 735 mmHg 67%
    03:00 +22°C° 0 mm 1 mps 735 mmHg 68%
    04:00 +22°C° 0 mm 1 mps 735 mmHg 69%
    05:00 +21°C° 0 mm 1 mps 735 mmHg 70%
    06:00 +23°C° 0 mm 1 mps 736 mmHg 66%
    07:00 +24°C° 0 mm 1 mps 737 mmHg 61%
    08:00 +26°C° 0 mm 1 mps 738 mmHg 57%
    09:00 +28°C° 0 mm 1 mps 737 mmHg 52%
    10:00 +30°C° 0 mm 1 mps 737 mmHg 47%
    11:00 +32°C° 0 mm 1 mps 737 mmHg 42%
    12:00 +32°C° 0 mm 1 mps 736 mmHg 39%
    13:00 +33°C° 0 mm 1 mps 735 mmHg 37%
    14:00 +34°C° 0 mm 1 mps 734 mmHg 34%
    15:00 +33°C° 0 mm 1 mps 734 mmHg 38%
    16:00 +32°C° 0 mm 1 mps 734 mmHg 41%
    17:00 +31°C° 0 mm 1 mps 734 mmHg 45%
    18:00 +29°C° 0 mm 1 mps 735 mmHg 49%
    19:00 +27°C° 0 mm 1 mps 736 mmHg 52%
    20:00 +26°C° 0 mm 1 mps 736 mmHg 56%
    21:00 +25°C° 0 mm 1 mps 736 mmHg 62%
    22:00 +24°C° 0 mm 1 mps 736 mmHg 69%
    23:00 +24°C° 0 mm 2 mps 736 mmHg 75%

    19 December, Wednesday

    Time Temperature Precipitation Wind Pressure Humidity
    00:00 +23°C° 0 mm 1 mps 736 mmHg 80%
    01:00 +23°C° 0 mm 1 mps 735 mmHg 84%
    02:00 +22°C° 0 mm 1 mps 735 mmHg 88%
    03:00 +22°C° 0 mm 1 mps 735 mmHg 90%
    04:00 +22°C° 0 mm 1 mps 735 mmHg 92%
    05:00 +22°C° 0 mm 1 mps 735 mmHg 93%
    06:00 +23°C° 0 mm 1 mps 736 mmHg 88%
    07:00 +24°C° 0 mm 1 mps 737 mmHg 83%
    08:00 +25°C° 0 mm 1 mps 738 mmHg 78%
    09:00 +27°C° 0 mm 1 mps 737 mmHg 70%
    10:00 +29°C° 0 mm 1 mps 737 mmHg 62%
    11:00 +31°C° 0 mm 1 mps 737 mmHg 54%
    12:00 +32°C° 0 mm 1 mps 736 mmHg 50%
    13:00 +32°C° 0 mm 1 mps 735 mmHg 46%
    14:00 +33°C° 0 mm 1 mps 734 mmHg 42%
    15:00 +32°C° 0 mm 1 mps 734 mmHg 45%
    16:00 +31°C° 0 mm 1 mps 734 mmHg 48%
    17:00 +31°C° 0 mm 1 mps 734 mmHg 51%
    18:00 +29°C° 0 mm 1 mps 735 mmHg 54%
    19:00 +28°C° 0 mm 1 mps 736 mmHg 58%
    20:00 +26°C° 0 mm 1 mps 737 mmHg 62%
    21:00 +25°C° 0 mm 1 mps 736 mmHg 65%
    22:00 +25°C° 0 mm 1 mps 736 mmHg 69%
    23:00 +24°C° 0 mm 1 mps 736 mmHg 72%

    20 December, Thursday

    Time Temperature Precipitation Wind Pressure Humidity
    00:00 +24°C° 0 mm 1 mps 736 mmHg 75%
    01:00 +23°C° 0 mm 1 mps 736 mmHg 77%
    02:00 +23°C° 0 mm 1 mps 735 mmHg 80%
    03:00 +22°C° 0 mm 1 mps 735 mmHg 81%
    04:00 +22°C° 0 mm 1 mps 735 mmHg 83%
    05:00 +22°C° 0 mm 1 mps 735 mmHg 84%
    06:00 +23°C° 0 mm 1 mps 736 mmHg 79%
    07:00 +24°C° 0 mm 1 mps 737 mmHg 74%
    08:00 +26°C° 0 mm 2 mps 737 mmHg 69%
    09:00 +28°C° 0 mm 2 mps 737 mmHg 60%
    10:00 +30°C° 0 mm 2 mps 737 mmHg 51%
    11:00 +31°C° 0 mm 2 mps 736 mmHg 43%
    12:00 +32°C° 0 mm 2 mps 735 mmHg 40%
    13:00 +34°C° 0 mm 2 mps 735 mmHg 37%
    14:00 +35°C° 0 mm 2 mps 734 mmHg 35%
    15:00 +34°C° 0 mm 2 mps 734 mmHg 39%
    16:00 +32°C° 0 mm 1 mps 734 mmHg 43%
    17:00 +31°C° 0 mm 1 mps 734 mmHg 47%
    18:00 +30°C° 0 mm 1 mps 735 mmHg 51%
    19:00 +28°C° 0 mm 1 mps 735 mmHg 55%
    20:00 +27°C° 0 mm 2 mps 736 mmHg 59%
    21:00 +27°C° 0 mm 1 mps 736 mmHg 64%
    22:00 +26°C° 0 mm 1 mps 736 mmHg 69%
    23:00 +26°C° 0 mm 1 mps 735 mmHg 74%
    Show more